Location: C�mpuri de-Sus
(45.9500°N, 22.5500°E)
Time: 03:36:03
(UTC+00:00)

ARGOS - Pass Details

Date: 24 October 2021
Orbit: 820 x 835 km, 98.4° (Epoch: 30 November)

Event Time Altitude Azimuth Distance (km) Brightness Sun altitude
Rises 16:38:33 0° 158° (SSE) 3,357 6.1 -12.8°
Reaches altitude 10° 16:40:53 10° 157° (SSE) 2,430 5.4 -13.2°
Maximum altitude 16:46:16 74° 73° (ENE) 869 3.1 -14.2°
Drops below altitude 10° 16:51:41 10° 350° (N) 2,455 5.7 -15.1°
Sets 16:54:04 0° 348° (NNW) 3,394 6.5 -15.5°
